Volver al catálogo

STARLINK-35972

ActivoComunicacionesVLEO
NORAD 66638·PAYLOAD·🇺🇸 United States

Lanzado Nov 23, 2025 desde Vandenberg Space Force Base

Loading…

Próximos Pases (próximas 24 horas)

TLE

ActualizadoSource: CelesTrak SupGP

Época: Sep 15, 2026, 02:36 UTC

1 66638C 25271X   26258.10881944  .00066044  00000+0  19512-2 0  2581
2 66638  53.1595 338.7382 0001136  88.2318  27.3448 15.34359983    13

Sigue STARLINK-35972 en tiempo real con AllMySat

Download on the App Store